"Timestamp","TZ","WindDir_Mean (deg)","WindSpd_Mean (km/h)","WindSpd_Min (km/h)","WindSpd_Max (km/h)","Temp_Mean (deg)","RH_Mean (%)","MSLP_Mean (hPa)","Rain_Acc (mm)","Rain_Intensity (mm/h)","Hail_Acc (hits/cm2)","Hail_Intensity (hits/cm2hr)","Solar_Mean (W/m2)"
2023/01/10 00:00:00.005,n,82,2.52,2.16,2.88,22.8,69.5,1012.82,0,0,0,0,0.020866
2023/01/10 00:01:00.001,n,54,3.24,2.16,3.96,22.8,69.5,1012.82,0,0,0,0,0.016556
2023/01/10 00:02:00.001,n,69,2.16,1.8,2.88,22.8,69.6,1012.82,0,0,0,0,0.018272
2023/01/10 00:03:00.001,n,52,3.6,2.88,3.6,22.8,69.6,1012.82,0,0,0,0,0.01564
2023/01/10 00:04:00.001,n,0,3.6,1.8,4.68,22.8,69.6,1012.82,0,0,0,0,0.019989
2023/01/10 00:05:00.001,n,46,5.04,3.6,6.48,22.8,69.4,1012.82,0,0,0,0,0.01915
2023/01/10 00:06:00.011,n,56,6.84,6.12,7.92,22.8,69.3,1012.82,0,0,0,0,0.018272
2023/01/10 00:07:00.001,n,32,3.6,2.88,3.96,22.8,69.3,1012.82,0,0,0,0,0.017395
2023/01/10 00:08:00.001,n,211,1.08,0.72,2.16,22.8,69.3,1012.82,0,0,0,0,0.016556
2023/01/10 00:09:00.017,n,79,3.6,2.88,5.04,22.8,69.3,1012.82,0,0,0,0,0.019989
2023/01/10 00:10:00.003,n,90,3.6,2.52,4.32,22.8,69.3,1012.82,0,0,0,0,0.016556
2023/01/10 00:11:00.005,n,2,3.96,3.24,4.68,22.8,69.4,1012.82,0,0,0,0,0.017395
2023/01/10 00:12:00.007,n,67,3.6,2.88,4.32,22.8,69.3,1012.72,0,0,0,0,0.017395
2023/01/10 00:13:00.007,n,47,3.24,2.52,3.6,22.8,69.3,1012.72,0,0,0,0,0.018272
2023/01/10 00:14:00.009,n,345,3.96,2.52,4.68,22.8,69.3,1012.72,0,0,0,0,0.01915
2023/01/10 00:15:00.001,n,95,3.6,3.24,3.96,22.8,69.2,1012.72,0,0,0,0,0.017395
2023/01/10 00:16:00.001,n,59,4.32,3.24,5.04,22.8,69.1,1012.72,0,0,0,0,0.01915
2023/01/10 00:17:00.002,n,35,3.24,2.16,5.04,22.8,69,1012.62,0,0,0,0,0.019989
2023/01/10 00:18:00.009,n,94,3.96,3.24,4.32,22.8,69.1,1012.62,0,0,0,0,0.018272
2023/01/10 00:19:00.001,n,106,1.8,1.44,2.16,22.8,69.1,1012.62,0,0,0,0,0.018272
2023/01/10 00:20:00.001,n,87,3.6,3.6,3.96,22.8,69,1012.62,0,0,0,0,0.01915
2023/01/10 00:21:00.001,n,25,3.96,3.24,5.04,22.8,69.1,1012.62,0,0,0,0,0.014801
2023/01/10 00:22:00.001,n,35,2.88,2.16,3.24,22.8,69,1012.62,0,0,0,0,0.018272
2023/01/10 00:23:00.002,n,17,1.08,0.72,1.08,22.8,69.1,1012.62,0,0,0,0,0.016556
2023/01/10 00:24:00.003,n,150,1.08,0.72,1.08,22.8,69,1012.72,0,0,0,0,0.014801
2023/01/10 00:25:00.005,n,136,1.8,1.44,2.16,22.8,69.2,1012.72,0,0,0,0,0.014801
2023/01/10 00:26:00.008,n,126,1.08,0,1.8,22.8,69.4,1012.72,0,0,0,0,0.018272
2023/01/10 00:27:00.011,n,190,3.24,2.88,3.24,22.9,69.3,1012.72,0,0,0,0,0.017395
2023/01/10 00:28:00.001,n,268,2.88,2.88,2.88,22.9,69.3,1012.72,0,0,0,0,0.016556
2023/01/10 00:29:00.001,n,271,3.6,2.88,3.96,22.9,69.3,1012.62,0,0,0,0,0.013924
2023/01/10 00:30:00.002,n,249,2.16,1.44,2.88,22.9,69.5,1012.62,0,0,0,0,0.017395
2023/01/10 00:31:00.001,n,259,0.36,0.36,0.72,22.9,69.5,1012.52,0,0,0,0,0.017395
2023/01/10 00:32:00.006,n,130,0.36,0,0.72,22.9,69.4,1012.52,0,0,0,0,0.018272
2023/01/10 00:33:00.010,n,80,0.36,0,0.36,22.9,69.1,1012.52,0,0,0,0,0.018272
2023/01/10 00:34:00.013,n,66,1.08,0.72,1.44,22.9,69,1012.42,0,0,0,0,0.024376
2023/01/10 00:35:00.001,n,148,4.68,2.88,7.92,22.9,69,1012.42,0,0,0,0,0.017395
2023/01/10 00:36:00.005,n,153,3.96,3.6,3.96,22.9,69.2,1012.42,0,0,0,0,0.017395
2023/01/10 00:37:00.001,n,168,3.24,2.16,4.32,22.8,69.3,1012.42,0,0,0,0,0.017395
2023/01/10 00:38:00.002,n,131,2.52,2.16,2.88,22.8,69.5,1012.32,0,0,0,0,0.016556
2023/01/10 00:39:00.005,n,164,3.24,2.88,3.6,22.7,69.7,1012.42,0,0,0,0,0.017395
2023/01/10 00:40:00.002,n,182,1.8,1.8,2.52,22.7,69.9,1012.42,0,0,0,0,0.019989
2023/01/10 00:41:00.001,n,168,2.16,2.16,2.52,22.7,70,1012.32,0,0,0,0,0.017395
2023/01/10 00:42:00.005,n,161,1.8,1.8,1.8,22.7,70,1012.32,0,0,0,0,0.017395
2023/01/10 00:43:00.013,n,174,1.8,1.8,2.52,22.7,70.1,1012.32,0,0,0,0,0.018272
2023/01/10 00:44:00.001,n,215,1.44,1.08,1.8,22.7,70.2,1012.32,0,0,0,0,0.016556
2023/01/10 00:45:00.005,n,169,2.16,1.8,2.52,22.7,70.2,1012.32,0,0,0,0,0.018272
2023/01/10 00:46:00.007,n,158,3.6,3.24,3.96,22.7,70,1012.32,0,0,0,0,0.018272
2023/01/10 00:47:00.001,n,172,3.96,2.52,7.56,22.7,70.1,1012.32,0,0,0,0,0.016556
2023/01/10 00:48:00.002,n,149,2.88,2.88,3.6,22.7,70.2,1012.32,0,0,0,0,0.020866
2023/01/10 00:49:00.008,n,183,5.04,3.6,7.92,22.6,70.3,1012.32,0,0,0,0,0.024376
2023/01/10 00:50:00.001,n,161,3.6,3.6,4.32,22.6,70.3,1012.32,0,0,0,0,0.02697
2023/01/10 00:51:00.009,n,154,3.6,2.88,4.32,22.6,70.4,1012.32,0,0,0,0,0.029602
2023/01/10 00:52:00.001,n,174,3.96,3.6,4.32,22.6,70.3,1012.32,0,0,0,0,0.035667
2023/01/10 00:53:00.009,n,155,5.4,4.32,10.440002,22.6,70.5,1012.32,0,0,0,0,0.033951
2023/01/10 00:54:00.013,n,161,3.6,3.6,3.6,22.6,70.5,1012.32,0,0,0,0,0.038261
2023/01/10 00:55:00.001,n,167,3.24,2.16,8.28,22.5,70.4,1012.32,0,0,0,0,0.037384
2023/01/10 00:56:00.001,n,151,1.44,0.72,1.8,22.5,70.6,1012.22,0,0,0,0,0.021744
2023/01/10 00:57:00.005,n,117,1.8,0.36,5.76,22.5,70.4,1012.22,0,0,0,0,0.028725
2023/01/10 00:58:00.002,n,167,2.52,2.16,2.52,22.6,70.4,1012.22,0,0,0,0,0.028725
2023/01/10 00:59:00.001,n,140,2.52,1.8,2.88,22.5,70.2,1012.22,0,0,0,0,0.030441
2023/01/10 01:00:00.001,n,124,2.88,2.16,3.6,22.6,70.2,1012.12,0,0,0,0,0.033951
2023/01/10 01:01:00.007,n,108,1.08,0.72,1.44,22.6,70.2,1012.12,0,0,0,0,0.030441
2023/01/10 01:02:00.006,n,110,1.08,0.72,1.08,22.6,70.3,1012.12,0,0,0,0,0.040016
2023/01/10 01:03:00.015,n,144,3.6,2.52,4.32,22.6,70.3,1012.12,0,0,0,0,0.039177
2023/01/10 01:04:00.001,n,132,3.24,3.24,3.6,22.6,70.5,1012.12,0,0,0,0,0.04261
2023/01/10 01:05:00.002,n,132,4.68,4.32,5.04,22.5,70.5,1012.02,0,0,0,0,0.039177
2023/01/10 01:06:00.001,n,143,4.32,4.32,4.68,22.5,70.5,1012.02,0,0,0,0,0.022621
2023/01/10 01:07:00.008,n,153,3.96,3.6,3.96,22.5,70.5,1012.02,0,0,0,0,0.032196
2023/01/10 01:08:00.001,n,161,3.6,2.52,7.92,22.5,70.6,1012.02,0,0,0,0,0.033073
2023/01/10 01:09:00.009,n,151,5.04,5.04,5.4,22.5,70.7,1011.92,0,0,0,0,0.03479
2023/01/10 01:10:00.009,n,145,3.24,2.88,3.6,22.5,70.7,1011.92,0,0,0,0,0.031319
2023/01/10 01:11:00.007,n,141,2.88,1.8,4.32,22.5,70.8,1011.92,0,0,0,0,0.033073
2023/01/10 01:12:00.001,n,128,2.88,2.52,3.24,22.5,70.9,1011.92,0,0,0,0,0.036545
2023/01/10 01:13:00.002,n,153,2.52,2.52,2.52,22.5,70.9,1011.92,0,0,0,0,0.036545
2023/01/10 01:14:00.001,n,156,2.88,2.52,2.88,22.4,70.9,1011.82,0,0,0,0,0.036545
2023/01/10 01:15:00.001,n,158,1.08,0.36,1.44,22.4,71,1011.82,0,0,0,0,0.035667
2023/01/10 01:16:00.007,n,135,1.44,1.08,1.8,22.4,71,1011.82,0,0,0,0,0.0383
2023/01/10 01:17:00.015,n,158,1.44,1.08,1.8,22.4,71,1011.82,0,0,0,0,0.036545
2023/01/10 01:18:00.020,n,175,4.32,3.24,8.28,22.4,71,1011.82,0,0,0,0,0.0383
2023/01/10 01:19:00.002,n,166,5.04,0.72,7.2,22.4,71,1011.82,0,0,0,0,0.0383
2023/01/10 01:20:00.006,n,156,3.24,2.88,3.24,22.4,71,1011.72,0,0,0,0,0.040894
2023/01/10 01:21:00.011,n,159,3.6,3.24,3.96,22.4,71.1,1011.72,0,0,0,0,0.043526
2023/01/10 01:22:00.001,n,147,2.88,2.52,3.24,22.4,71.1,1011.72,0,0,0,0,0.041771
2023/01/10 01:23:00.003,n,170,3.96,2.52,7.92,22.4,71.1,1011.72,0,0,0,0,0.040016
2023/01/10 01:24:00.012,n,170,3.6,1.8,7.92,22.4,71.1,1011.72,0,0,0,0,0.040894
2023/01/10 01:25:00.009,n,120,1.8,1.44,2.16,22.4,71.1,1011.72,0,0,0,0,0.039177
2023/01/10 01:26:00.002,n,158,3.24,1.8,6.84,22.4,71.1,1011.72,0,0,0,0,0.022621
2023/01/10 01:27:00.002,n,138,2.16,2.16,2.52,22.4,71,1011.62,0,0,0,0,0.028687
2023/01/10 01:28:00.004,n,147,4.32,3.96,5.4,22.4,70.8,1011.62,0,0,0,0,0.033035
2023/01/10 01:29:00.008,n,122,2.16,1.44,3.24,22.4,70.8,1011.62,0,0,0,0,0.032158
2023/01/10 01:30:00.013,n,133,3.96,3.96,4.32,22.4,70.9,1011.62,0,0,0,0,0.03479
2023/01/10 01:31:00.002,n,143,3.24,2.52,3.6,22.4,70.9,1011.62,0,0,0,0,0.032158
2023/01/10 01:32:00.010,n,122,3.24,2.88,3.6,22.4,70.9,1011.62,0,0,0,0,0.033875
2023/01/10 01:33:00.001,n,126,3.24,3.24,3.96,22.3,71,1011.62,0,0,0,0,0.033035
2023/01/10 01:34:00.001,n,118,2.88,2.52,3.6,22.3,71,1011.62,0,0,0,0,0.035667
2023/01/10 01:35:00.003,n,125,1.8,1.44,2.52,22.3,71,1011.62,0,0,0,0,0.03479
2023/01/10 01:36:00.004,n,132,1.08,0.72,1.44,22.3,71,1011.72,0,0,0,0,0.037384
2023/01/10 01:37:00.009,n,131,2.52,1.44,8.64,22.3,71,1011.72,0,0,0,0,0.03479
2023/01/10 01:38:00.006,n,141,2.52,2.16,2.88,22.4,70.9,1011.72,0,0,0,0,0.035667
2023/01/10 01:39:00.008,n,147,2.88,2.52,3.24,22.4,70.9,1011.72,0,0,0,0,0.03479
2023/01/10 01:40:00.001,n,156,3.24,2.88,3.24,22.4,70.9,1011.72,0,0,0,0,0.036507
2023/01/10 01:41:00.001,n,143,3.96,3.6,3.96,22.4,70.9,1011.72,0,0,0,0,0.036507
2023/01/10 01:42:00.002,n,144,2.88,2.52,3.24,22.4,70.9,1011.72,0,0,0,0,0.033875
2023/01/10 01:43:00.007,n,119,2.88,2.88,3.24,22.4,70.9,1011.72,0,0,0,0,0.03479
2023/01/10 01:44:00.008,n,138,2.16,1.8,2.52,22.4,70.8,1011.72,0,0,0,0,0.03479
2023/01/10 01:45:00.009,n,153,2.52,1.08,6.84,22.4,70.7,1011.72,0,0,0,0,0.037384
2023/01/10 01:46:00.016,n,164,2.88,1.8,5.04,22.4,70.7,1011.72,0,0,0,0,0.040855
2023/01/10 01:47:00.009,n,71,0.72,0.36,1.08,22.4,70.6,1011.72,0,0,0,0,0.037384
2023/01/10 01:48:00.011,n,129,1.8,1.44,2.52,22.4,70.5,1011.72,0,0,0,0,0.039101
2023/01/10 01:49:00.002,n,146,4.32,3.96,4.68,22.4,70.3,1011.72,0,0,0,0,0.037384
2023/01/10 01:50:00.001,n,161,4.32,3.6,8.64,22.4,70.2,1011.82,0,0,0,0,0.039978
2023/01/10 01:51:00.008,n,135,3.24,2.16,3.96,22.4,70.3,1011.82,0,0,0,0,0.039978
2023/01/10 01:52:00.001,n,135,2.52,1.8,2.88,22.4,70.1,1011.82,0,0,0,0,0.038261
2023/01/10 01:53:00.004,n,130,3.24,1.8,3.96,22.5,70.1,1011.82,0,0,0,0,0.039101
2023/01/10 01:54:00.012,n,123,3.24,3.24,3.6,22.5,69.9,1011.82,0,0,0,0,0.039101
2023/01/10 01:55:00.002,n,138,1.8,1.44,2.16,22.5,69.9,1011.82,0,0,0,0,0.039978
2023/01/10 01:56:00.021,n,134,2.52,2.52,2.88,22.5,70,1011.82,0,0,0,0,0.039978
2023/01/10 01:57:00.015,n,134,3.24,3.24,3.6,22.5,70.1,1011.82,0,0,0,0,0.039978
2023/01/10 01:58:00.002,n,176,1.08,0.72,1.08,22.5,70.2,1011.72,0,0,0,0,0.04261
2023/01/10 01:59:00.004,n,109,0.72,0.36,1.08,22.5,70.2,1011.72,0,0,0,0,0.04261
2023/01/10 02:00:00.002,n,124,2.52,1.8,2.88,22.5,70.1,1011.72,0,0,0,0,0.039101
2023/01/10 02:01:00.002,n,126,2.52,2.16,2.52,22.5,70.1,1011.72,0,0,0,0,0.040855
2023/01/10 02:02:00.007,n,151,3.96,3.6,8.28,22.5,70.1,1011.72,0,0,0,0,0.04261
2023/01/10 02:03:00.006,n,151,2.52,2.16,2.88,22.5,70.1,1011.72,0,0,0,0,0.044327
2023/01/10 02:04:00.014,n,148,2.16,2.16,2.52,22.5,70.2,1011.72,0,0,0,0,0.040855
2023/01/10 02:05:00.005,n,156,3.96,3.96,4.32,22.5,70.2,1011.72,0,0,0,0,0.04261
2023/01/10 02:06:00.016,n,166,3.6,3.6,4.32,22.5,70.2,1011.72,0,0,0,0,0.046082
2023/01/10 02:07:00.002,n,172,4.32,3.6,4.68,22.5,70.3,1011.72,0,0,0,0,0.043449
2023/01/10 02:08:00.002,n,144,3.24,2.52,8.28,22.5,70.3,1011.72,0,0,0,0,0.045204
2023/01/10 02:09:00.001,n,170,3.24,2.52,3.6,22.5,70.3,1011.82,0,0,0,0,0.044327
2023/01/10 02:10:00.010,n,180,2.16,2.16,2.52,22.5,70.4,1011.82,0,0,0,0,0.04261
2023/01/10 02:11:00.002,n,158,3.6,3.24,3.96,22.5,70.6,1011.82,0,0,0,0,0.046082
2023/01/10 02:12:00.011,n,166,2.16,1.8,2.52,22.5,70.6,1011.82,0,0,0,0,0.040855
2023/01/10 02:13:00.001,n,142,3.24,2.16,7.56,22.5,70.8,1011.82,0,0,0,0,0.039978
2023/01/10 02:14:00.005,n,182,1.44,0.72,6.12,22.5,70.8,1011.82,0,0,0,0,0.045204
2023/01/10 02:15:00.003,n,118,1.44,0.72,2.16,22.4,71,1011.82,0,0,0,0,0.044327
2023/01/10 02:16:00.002,n,206,1.44,1.44,1.8,22.4,71,1011.82,0,0,0,0,0.040855
2023/01/10 02:17:00.009,n,133,1.08,1.08,1.44,22.4,71.1,1011.72,0,0,0,0,0.044327
2023/01/10 02:18:00.001,n,150,1.8,1.44,2.16,22.4,71.1,1011.72,0,0,0,0,0.041733
2023/01/10 02:19:00.011,n,157,3.6,2.52,9.72,22.4,71,1011.72,0,0,0,0,0.044327
2023/01/10 02:20:00.015,n,146,1.8,0.36,2.52,22.5,71,1011.72,0,0,0,0,0.046959
2023/01/10 02:21:00.001,n,153,2.16,2.16,2.16,22.5,70.7,1011.72,0,0,0,0,0.046959
2023/01/10 02:22:00.007,n,168,2.16,2.16,3.24,22.4,70.8,1011.72,0,0,0,0,0.046082
2023/01/10 02:23:00.004,n,175,3.24,2.52,8.28,22.4,70.7,1011.72,0,0,0,0,0.045204
2023/01/10 02:24:00.006,n,182,2.88,2.52,3.24,22.4,70.5,1011.72,0,0,0,0,0.04261
2023/01/10 02:25:00.001,n,163,3.24,1.44,6.12,22.4,70.5,1011.72,0,0,0,0,0.045204
2023/01/10 02:26:00.003,n,141,2.16,1.8,2.52,22.4,70.5,1011.72,0,0,0,0,0.046959
2023/01/10 02:27:00.008,n,174,2.16,1.8,2.16,22.4,70.6,1011.72,0,0,0,0,0.045204
2023/01/10 02:28:00.001,n,213,3.96,3.6,4.32,22.4,70.4,1011.72,0,0,0,0,0.041733
2023/01/10 02:29:00.003,n,182,3.24,2.52,7.2,22.4,70.3,1011.62,0,0,0,0,0.046082
2023/01/10 02:30:00.002,n,169,2.88,1.44,6.84,22.4,70.2,1011.62,0,0,0,0,0.045204
2023/01/10 02:31:00.003,n,37,1.08,0.36,5.04,22.4,70.4,1011.62,0,0,0,0,0.043449
2023/01/10 02:32:00.003,n,224,2.16,1.8,2.88,22.4,70.4,1011.62,0,0,0,0,0.048676
2023/01/10 02:33:00.019,n,249,2.16,1.44,2.52,22.4,70.5,1011.62,0,0,0,0,0.044327
2023/01/10 02:34:00.001,n,273,2.16,1.44,2.52,22.4,70.5,1011.62,0,0,0,0,0.044327
2023/01/10 02:35:00.002,n,261,3.24,1.8,4.32,22.5,71.2,1011.62,0,0,0,0,0.041733
2023/01/10 02:36:00.001,n,259,1.8,1.44,2.16,22.5,71.6,1011.62,0,0,0,0,0.046959
2023/01/10 02:37:00.014,n,255,1.8,1.08,2.52,22.5,71.2,1011.62,0,0,0,0,0.045204
2023/01/10 02:38:00.012,n,261,1.8,1.08,2.16,22.5,71.4,1011.72,0,0,0,0,0.047836
2023/01/10 02:39:00.002,n,269,1.44,1.08,1.8,22.5,71.3,1011.72,0,0,0,0,0.044327
2023/01/10 02:40:00.006,n,256,1.8,1.44,1.8,22.4,71.2,1011.72,0,0,0,0,0.044327
2023/01/10 02:41:00.002,n,225,1.44,1.44,1.8,22.4,71.3,1011.72,0,0,0,0,0.044327
2023/01/10 02:42:00.015,n,145,2.88,1.8,6.12,22.4,71.5,1011.72,0,0,0,0,0.046959
2023/01/10 02:43:00.001,n,167,1.8,1.44,2.52,22.4,71.5,1011.72,0,0,0,0,0.041733
2023/01/10 02:44:00.001,n,153,3.6,3.24,3.96,22.4,71.6,1011.72,0,0,0,0,0.041733
2023/01/10 02:45:00.001,n,157,2.88,2.52,3.24,22.4,71.7,1011.62,0,0,0,0,0.044327
2023/01/10 02:46:00.001,n,176,5.04,3.24,8.28,22.4,71.9,1011.62,0,0,0,0,0.047836
2023/01/10 02:47:00.005,n,159,2.52,2.16,3.24,22.4,71.9,1011.62,0,0,0,0,0.024338
2023/01/10 02:48:00.012,n,89,2.16,1.44,2.52,22.4,71.9,1011.62,0,0,0,0,0.033073
2023/01/10 02:49:00.006,n,165,1.44,0.36,2.88,22.4,72.2,1011.62,0,0,0,0,0.030479
2023/01/10 02:50:00.001,n,143,2.16,1.8,2.52,22.4,72.5,1011.62,0,0,0,0,0.029564
2023/01/10 02:51:00.016,n,68,1.8,1.44,2.16,22.4,72.8,1011.62,0,0,0,0,0.030479
2023/01/10 02:52:00.002,n,114,1.44,0.72,1.8,22.4,72.7,1011.62,0,0,0,0,0.031357
2023/01/10 02:53:00.001,n,104,2.16,1.8,2.52,22.4,72.5,1011.62,0,0,0,0,0.033073
2023/01/10 02:54:00.001,n,162,2.52,1.08,6.84,22.4,72.5,1011.52,0,0,0,0,0.029564
2023/01/10 02:55:00.007,n,133,2.52,2.52,2.52,22.4,72.6,1011.62,0,0,0,0,0.03479
2023/01/10 02:56:00.001,n,137,2.16,1.8,2.88,22.4,72.5,1011.62,0,0,0,0,0.033073
2023/01/10 02:57:00.001,n,107,1.44,1.08,2.16,22.3,72.4,1011.62,0,0,0,0,0.033073
2023/01/10 02:58:00.009,n,128,3.96,3.24,4.32,22.3,72.1,1011.62,0,0,0,0,0.032196
2023/01/10 02:59:00.011,n,129,3.6,3.24,4.68,22.3,71.8,1011.72,0,0,0,0,0.032196
2023/01/10 03:00:00.011,n,195,2.52,1.8,5.4,22.3,71.9,1011.72,0,0,0,0,0.03479
2023/01/10 03:01:00.001,n,201,2.52,1.8,6.12,22.3,71.9,1011.82,0,0,0,0,0.033951
2023/01/10 03:02:00.005,n,201,4.68,3.24,7.2,22.3,71.6,1011.82,0,0,0,0,0.035667
2023/01/10 03:03:00.001,n,163,1.08,0.72,2.16,22.3,71.2,1011.72,0,0,0,0,0.033073
2023/01/10 03:04:00.006,n,139,3.6,3.6,3.96,22.3,71.3,1011.72,0,0,0,0,0.033951
2023/01/10 03:05:00.005,n,152,2.88,2.16,7.92,22.3,70.8,1011.72,0,0,0,0,0.033951
2023/01/10 03:06:00.001,n,144,3.96,3.24,3.96,22.3,70.5,1011.72,0,0,0,0,0.035667
2023/01/10 03:07:00.001,n,160,5.4,4.32,10.08,22.3,70.3,1011.72,0,0,0,0,0.037422
2023/01/10 03:08:00.014,n,150,2.16,1.08,2.88,22.3,70.2,1011.72,0,0,0,0,0.035667
2023/01/10 03:09:00.009,n,168,3.6,2.52,7.56,22.3,70.4,1011.72,0,0,0,0,0.03479
2023/01/10 03:10:00.002,n,143,2.52,2.52,2.88,22.3,70.4,1011.72,0,0,0,0,0.0383
2023/01/10 03:11:00.001,n,207,2.88,1.08,7.2,22.3,69.8,1011.72,0,0,0,0,0.03479
2023/01/10 03:12:00.001,n,148,2.16,0.36,5.04,22.3,69.6,1011.72,0,0,0,0,0.035667
2023/01/10 03:13:00.002,n,149,2.52,0,2.88,22.3,69.9,1011.72,0,0,0,0,0.033073
2023/01/10 03:14:00.001,n,155,3.96,2.52,6.12,22.3,69.3,1011.72,0,0,0,0,0.035667
2023/01/10 03:15:00.003,n,151,3.96,3.6,4.32,22.3,69.5,1011.72,0,0,0,0,0.036545
2023/01/10 03:16:00.002,n,147,5.4,5.04,5.76,22.3,68.7,1011.72,0,0,0,0,0.032196
2023/01/10 03:17:00.004,n,159,5.76,5.04,6.84,22.3,69.1,1011.62,0,0,0,0,0.035667
2023/01/10 03:18:00.002,n,164,3.6,3.6,4.32,22.3,69.4,1011.62,0,0,0,0,0.033073
2023/01/10 03:19:00.002,n,146,3.96,3.6,4.32,22.3,69.5,1011.62,0,0,0,0,0.035667
2023/01/10 03:20:00.002,n,141,4.32,3.6,4.68,22.3,69.5,1011.62,0,0,0,0,0.033951
2023/01/10 03:21:00.002,n,165,4.32,3.96,9,22.3,69.3,1011.62,0,0,0,0,0.032196
2023/01/10 03:22:00.001,n,158,4.68,3.96,5.04,22.2,69.5,1011.62,0,0,0,0,0.033073
2023/01/10 03:23:00.018,n,176,4.32,3.96,4.68,22.2,69.6,1011.62,0,0,0,0,0.036545
2023/01/10 03:24:00.010,n,156,4.68,4.68,5.4,22.2,69.6,1011.52,0,0,0,0,0.03479
2023/01/10 03:25:00.006,n,181,3.96,2.52,9,22.2,69.8,1011.52,0,0,0,0,0.033951
2023/01/10 03:26:00.015,n,128,2.88,2.52,3.24,22.2,69.7,1011.52,0,0,0,0,0.031357
2023/01/10 03:27:00.013,n,174,5.76,2.88,8.64,22.2,69.6,1011.52,0,0,0,0,0.031357
2023/01/10 03:28:00.001,n,174,6.84,3.96,9.72,22.2,69.8,1011.52,0,0,0,0,0.033073
2023/01/10 03:29:00.001,n,149,5.76,5.04,6.12,22.2,69.7,1011.52,0,0,0,0,0.032196
2023/01/10 03:30:00.136,n,165,4.68,3.96,5.04,22.1,69.7,1011.52,0,0,0,0,0.030479
2023/01/10 03:31:00.013,n,164,4.32,4.32,5.04,22.1,69.7,1011.52,0,0,0,0,0.031357
2023/01/10 03:32:00.001,n,159,5.04,5.04,5.4,22.1,69.8,1011.52,0,0,0,0,0.033951
2023/01/10 03:33:00.008,n,149,6.48,5.76,10.440002,22.1,69.9,1011.52,0,0,0,0,0.031357
2023/01/10 03:34:00.008,n,148,4.68,4.32,5.04,22.1,70,1011.52,0,0,0,0,0.031357
2023/01/10 03:35:00.015,n,152,5.4,5.04,5.4,22.1,69.9,1011.52,0,0,0,0,0.030479
2023/01/10 03:36:00.015,n,138,2.52,2.16,2.88,22.1,70,1011.52,0,0,0,0,0.030479
2023/01/10 03:37:00.001,n,119,3.24,2.52,3.96,22.1,70.1,1011.52,0,0,0,0,0.027847
2023/01/10 03:38:00.004,n,155,2.52,1.8,6.12,22.1,70.2,1011.52,0,0,0,0,0.030479
2023/01/10 03:39:00.003,n,169,2.16,1.8,2.88,22.1,70.3,1011.52,0,0,0,0,0.029564
2023/01/10 03:40:00.005,n,164,5.04,5.04,5.4,22,70.3,1011.52,0,0,0,0,0.02697
2023/01/10 03:41:00.012,n,256,2.52,1.08,4.32,22,70.4,1011.52,0,0,0,0,0.029564
2023/01/10 03:42:00.013,n,179,3.6,2.88,7.92,22,70.5,1011.52,0,0,0,0,0.025253
2023/01/10 03:43:00.004,n,161,4.68,1.8,7.92,22,70.5,1011.52,0,0,0,0,0.025253
2023/01/10 03:44:00.014,n,151,2.88,2.52,7.56,22,70.5,1011.52,0,0,0,0,0.023499
2023/01/10 03:45:00.005,n,170,2.52,2.16,2.88,22,70.7,1011.52,0,0,0,0,0.026131
2023/01/10 03:46:00.007,n,178,6.48,3.6,8.64,22,70.8,1011.52,0,0,0,0,0.024338
2023/01/10 03:47:00.005,n,226,1.44,1.08,2.52,21.9,70.8,1011.52,0,0,0,0,0.027847
2023/01/10 03:48:00.007,n,206,3.6,1.8,7.56,21.9,70.9,1011.62,0,0,0,0,0.025253
2023/01/10 03:49:00.001,n,185,6.48,5.4,11.16,21.9,70.7,1011.62,0,0,0,0,0.023499
2023/01/10 03:50:00.003,n,179,5.04,3.96,9,21.9,70.7,1011.62,0,0,0,0,0.021744
2023/01/10 03:51:00.004,n,161,4.68,3.96,5.4,21.9,70.9,1011.62,0,0,0,0,0.023499
2023/01/10 03:52:00.006,n,165,5.76,5.4,5.76,21.9,71.1,1011.62,0,0,0,0,0.024338
2023/01/10 03:53:00.016,n,154,4.68,3.96,8.28,21.9,71.2,1011.62,0,0,0,0,0.022621
2023/01/10 03:54:00.003,n,148,4.68,3.96,5.76,21.9,71.2,1011.62,0,0,0,0,0.023499
2023/01/10 03:55:00.007,n,156,6.48,6.48,6.84,21.9,71.2,1011.62,0,0,0,0,0.020905
2023/01/10 03:56:00.003,n,175,5.4,4.68,6.12,21.8,71.3,1011.62,0,0,0,0,0.027847
2023/01/10 03:57:00.002,n,176,5.76,4.68,9.72,21.8,71.3,1011.62,0,0,0,0,0.023499
2023/01/10 03:58:00.002,n,211,2.88,2.16,6.48,21.8,71.4,1011.72,0,0,0,0,0.023499
2023/01/10 03:59:00.011,n,194,4.32,3.6,5.04,21.8,71.4,1011.72,0,0,0,0,0.025215
2023/01/10 04:00:00.001,n,183,4.68,3.96,8.28,21.8,71.4,1011.72,0,0,0,0,0.02697
2023/01/10 04:01:00.001,n,208,4.68,3.96,5.76,21.8,71.4,1011.72,0,0,0,0,0.022621
2023/01/10 04:02:00.004,n,146,3.24,2.88,3.96,21.8,71.5,1011.72,0,0,0,0,0.020866
2023/01/10 04:03:00.002,n,160,10.08,4.68,14.04,21.8,71.4,1011.72,0,0,0,0,0.018272
2023/01/10 04:04:00.002,n,201,1.08,0,2.16,21.8,71.3,1011.72,0,0,0,0,0.025253
2023/01/10 04:05:00.001,n,175,3.96,3.6,4.32,21.8,71.6,1011.72,0,0,0,0,0.026093
2023/01/10 04:06:00.001,n,165,3.6,2.88,4.32,21.7,71.5,1011.62,0,0,0,0,0.020866
2023/01/10 04:07:00.001,n,196,3.6,2.88,4.32,21.7,71.6,1011.62,0,0,0,0,0.020866
2023/01/10 04:08:00.001,n,177,8.28,6.12,11.88,21.7,71.6,1011.62,0,0,0,0,0.018272
2023/01/10 04:09:00.012,n,174,9.36,5.4,11.88,21.7,71.6,1011.62,0,0,0,0,0.027847
2023/01/10 04:10:00.013,n,160,3.6,1.44,6.48,21.7,71.7,1011.62,0,0,0,0,0.032196
2023/01/10 04:11:00.001,n,210,4.32,2.16,7.92,21.7,71.9,1011.62,0,0,0,0,0.027847
2023/01/10 04:12:00.018,n,186,4.32,3.96,5.04,21.7,71.9,1011.62,0,0,0,0,0.023499
2023/01/10 04:13:00.001,n,161,5.76,5.4,6.48,21.6,71.9,1011.52,0,0,0,0,0.025253
2023/01/10 04:14:00.001,n,160,5.4,4.68,6.12,21.6,72,1011.52,0,0,0,0,0.022621
2023/01/10 04:15:00.002,n,202,5.04,2.52,7.92,21.6,72.1,1011.52,0,0,0,0,0.028725
2023/01/10 04:16:00.001,n,183,1.44,0.72,2.16,21.6,72.2,1011.62,0,0,0,0,0.029564
2023/01/10 04:17:00.002,n,202,5.04,3.24,7.56,21.6,72.2,1011.62,0,0,0,0,0.029564
2023/01/10 04:18:00.004,n,197,8.28,7.2,11.52,21.6,72.2,1011.72,0,0,0,0,0.032196
2023/01/10 04:19:00.007,n,177,4.32,2.88,7.2,21.6,72.2,1011.72,0,0,0,0,0.028725
2023/01/10 04:20:00.011,n,181,5.76,3.24,10.08,21.6,72.2,1011.72,0,0,0,0,0.025253
2023/01/10 04:21:00.015,n,188,7.2,5.04,9.36,21.5,72.2,1011.72,0,0,0,0,0.030403
2023/01/10 04:22:00.003,n,223,3.6,2.16,7.2,21.5,72.2,1011.72,0,0,0,0,0.033035
2023/01/10 04:23:00.001,n,120,2.16,1.08,3.6,21.5,72.3,1011.72,0,0,0,0,0.032158
2023/01/10 04:24:00.001,n,185,5.04,3.24,8.64,21.5,72.3,1011.72,0,0,0,0,0.030403
2023/01/10 04:25:00.002,n,210,3.96,3.6,4.68,21.5,72.4,1011.82,0,0,0,0,0.032158
2023/01/10 04:26:00.006,n,177,10.08,8.64,11.16,21.5,72.4,1011.82,0,0,0,0,0.03479
2023/01/10 04:27:00.008,n,175,3.6,2.88,6.12,21.5,72.4,1011.82,0,0,0,0,0.035629
2023/01/10 04:28:00.013,n,196,7.56,5.76,11.88,21.5,72.3,1011.82,0,0,0,0,0.04261
2023/01/10 04:29:00.012,n,170,7.2,5.76,9.72,21.5,72.3,1011.92,0,0,0,0,0.050468
2023/01/10 04:30:00.016,n,176,9.72,9,10.8,21.5,72.4,1011.92,0,0,0,0,0.050468
2023/01/10 04:31:00.001,n,218,2.88,2.16,5.04,21.5,72.5,1011.92,0,0,0,0,0.051346
2023/01/10 04:32:00.005,n,173,3.96,1.8,8.64,21.5,72.7,1011.92,0,0,0,0,0.055695
2023/01/10 04:33:00.006,n,175,9,6.48,11.88,21.5,73,1011.92,0,0,0,0,0.064392
2023/01/10 04:34:00.002,n,182,9.72,6.84,13.68,21.5,73.2,1012.02,0,0,0,0,0.069618
2023/01/10 04:35:00.001,n,163,5.04,3.6,5.76,21.5,73.3,1012.02,0,0,0,0,0.080032
2023/01/10 04:36:00.009,n,176,3.96,1.08,8.28,21.4,73.4,1012.02,0,0,0,0,0.092201
2023/01/10 04:37:00.008,n,180,4.32,2.88,8.28,21.4,73.8,1012.02,0,0,0,0,0.114822
2023/01/10 04:38:00.012,n,150,2.88,2.16,3.96,21.4,73.9,1012.02,0,0,0,0,0.137444
2023/01/10 04:39:00.015,n,150,2.88,2.52,3.24,21.4,74,1012.02,0,0,0,0,0.168724
2023/01/10 04:40:00.003,n,210,1.8,0.72,2.52,21.4,74.1,1012.02,0,0,0,0,0.210419
2023/01/10 04:41:00.001,n,205,1.8,1.08,2.52,21.4,74,1012.02,0,0,0,0,0.260849
2023/01/10 04:42:00.001,n,202,1.8,1.44,2.16,21.4,74.1,1012.12,0,0,0,0,0.319901
2023/01/10 04:43:00.001,n,166,9,6.48,12.24,21.4,73.9,1012.12,0,0,0,0,0.392838
2023/01/10 04:44:00.001,n,182,3.6,1.08,6.12,21.3,74.2,1012.12,0,0,0,0,0.481377
2023/01/10 04:45:00.001,n,292,1.8,1.08,2.52,21.3,74.3,1012.12,0,0,0,0,0.597534
2023/01/10 04:46:00.003,n,259,2.88,2.52,2.88,21.4,74.8,1012.12,0,0,0,0,0.739403
2023/01/10 04:47:00.004,n,217,3.24,2.16,3.6,21.4,74.7,1012.22,0,0,0,0,0.901146
2023/01/10 04:48:00.007,n,185,3.24,1.44,4.32,21.4,74.3,1012.22,0,0,0,0,1.107903
2023/01/10 04:49:00.001,n,256,3.6,1.44,3.96,21.4,74.2,1012.22,0,0,0,0,1.447868
2023/01/10 04:50:00.001,n,275,3.24,2.16,4.68,21.3,74.7,1012.22,0,0,0,0,1.995049
2023/01/10 04:51:00.001,n,272,3.96,3.96,4.68,21.3,74.5,1012.22,0,0,0,0,2.567406
2023/01/10 04:52:00.002,n,270,1.44,0.72,1.8,21.3,74.5,1012.22,0,0,0,0,2.994805
2023/01/10 04:53:00.002,n,271,1.8,1.44,1.8,21.2,74.6,1012.22,0,0,0,0,3.319588
2023/01/10 04:54:00.005,n,213,1.44,0.72,6.48,21.2,74.6,1012.22,0,0,0,0,3.606987
2023/01/10 04:55:00.012,n,224,1.08,0.72,2.16,21.2,74.7,1012.32,0,0,0,0,3.92334
2023/01/10 04:56:00.014,n,229,1.8,1.44,2.16,21.2,74.9,1012.32,0,0,0,0,4.22535